www.pogodaiklimat.ru

Погода и климат >> Архив погоды >> Россия >> Коми >> Ижма


ПОГОДА в Ижме

  • Прогноз погоды в Ижме
  • Монитор погоды в Ижме

АРХИВ ПОГОДЫ в Ижме

Время (UTC), дата Ветер
(напр.,м/с)
 
Видим.   Явления Облачность Т
(С)
Тd
(С)
f
(%)
Тe
(С)
Тes
(С)
Комфортность P
(гПа)
Po
(гПа)
Тmin
(С)
Tmax
(С)
R
(мм)
R24
(мм)
S
(см)
12 18.06 СЗ 4 20 км {ливн. осадки} 10/4 600 м
[Cb cap Ac trans Ci fib]
+11.1 +1.7 52 +9 +11 1005.2 1000.4
15 18.06 С 3 20 км 10/6 600 м
[Cb cap Ac cast Ci fib]
+9.7 +0.6 53 +8 +8 1005.6 1000.7 +11.7 0.8
18 18.06 С 2 20 км 6/6 1000 м
[Sc]
+7.5 +0.4 61 +6 +6 1005.9 1001.0
21 18.06 штиль 0 20 км 9/9 1050 м
[Sc]
+2.8 +0.6 85 +2 +2 1006.2 1001.3
00 19.06 С 1 20 км 10/0
[Ac und]
+4.8 +2.2 83 +4 +4 1006.8 1001.9
03 19.06 С 2 20 км 10/4 600 м
[Cb cap Ac und]
+6.0 -0.1 65 +4 +5 1007.3 1002.4 +1.5
06 19.06 СЗ 4 20 км 10/10 960 м
[Sc]
+5.8 -1.7 59 +2 +2 1008.3 1003.4
09 19.06 СЗ 3 20 км 9/9 1000 м
[Sc]
+7.1 -1.8 53 +5 +6 1009.1 1004.2
12 19.06 С 3 20 км 10/5 1000 м
[Sc Ac trans]
+8.0 -1.3 52 +6 +7 1009.5 1004.6
15 19.06 С 2 20 км 9/0
[Ac trans]
+8.2 -1.1 52 +7 +8 1009.0 1004.1 +8.8
18 19.06 ЮВ 1 20 км 10/0
[Ac trans Ci fib]
+6.1 +2.4 77 +5 +5 1008.4 1003.5
21 19.06 ЮВ 1 20 км 10/0
[Ac trans Ci fib]
+1.2 +0.3 94 -1 -1 1007.5 1002.5
00 20.06 ЮВ 2 20 км 10/3 600 м
[Sc Ac trans Ci fib]
+4.5 +0.2 74 +2 +2 1005.8 1000.9 +1.0
03 20.06 Ю 2 20 км 10/3 600 м
[Sc Ac trans Ci fib]
+7.3 +0.5 62 +6 +7 1004.8 999.9 +1.0
06 20.06 Ю 2 20 км 10/3 1000 м
[Cb cap Ac und]
+10.2 +3.3 62 +9 +11 1003.7 998.9
09 20.06 Ю 2 20 км в посл. час ливневой дождь 10/8 700 м
[Cb cap Ac und]
+11.5 +6.4 71 +10 +11 1003.5 998.7
12 20.06 С 4 20 км {ливн. осадки} 10/8 400 м
[Cb cap Ac und]
+7.6 +5.4 86 +4 +4 1007.4 1002.6
15 20.06 С 4 20 км {ливн. осадки} 10/8 840 м
[Cb cap Ac und]
+7.6 +2.7 71 +4 +5 1010.2 1005.4 +11.8 0.4
18 20.06 СЗ 2 20 км {ливн. осадки} 9/4 600 м
[Cb cap Ac trans]
+6.8 +1.9 71 +5 +5 1011.7 1006.8
21 20.06 З 1 20 км 9/3 600 м
[Sc Ac lent]
+2.6 +1.9 95 +1 +1 1012.2 1007.2
00 21.06 СЗ 2 20 км 10/0
[Ac lent]
+4.9 +1.6 79 +2 +2 1012.5 1007.6
03 21.06 З 4 20 км слаб. ливневой дождь 10/6 600 м
[Cb cap Ac und]
+5.7 +1.5 74 +2 +2 1012.8 1007.9 -0.4 0.0
06 21.06 С 3 20 км {ливн. осадки} 10/6 800 м
[Cb cap Ac und]
+7.0 +1.7 69 +4 +5 1013.3 1008.4
09 21.06 СЗ 3 20 км 10/4 1000 м
[Cb cap Ci ing]
+9.8 -0.7 48 +8 +13 1014.3 1009.4
12 21.06 СЗ 4 20 км 6/4 600 м
[Cu Sc Ac trans]
+13.6 +0.3 40 +12 +15 1014.6 1009.8
15 21.06 СЗ 2 20 км ясно +14.5 +0.8 39 +14 +16 1014.2 1009.4 +14.6 0.0
18 21.06 штиль 0 20 км 3/0
[Ci fib]
+6.9 +4.3 83 +6 +6 1014.0 1009.1
21 21.06 Ю 1 20 км 8/0
[Ci fib]
-0.7 -1.3 96 -3 -3 1013.8 1008.8
00 22.06 Ю 2 20 км 8/0
[Ac trans Ci fib]
+4.0 +2.6 91 +1 +1 1013.0 1008.1
03 22.06 Ю 2 20 км 10/0
[Ac trans Cs]
+12.2 +4.1 58 +11 +14 1011.4 1006.6 -0.9
06 22.06 ЮЗ 2 20 км слаб. дождь 10/0
[Ac As]
+12.5 +7.2 70 +12 +15 1010.1 1005.3
09 22.06 Ю 2 20 км слаб. дождь 10/6 600 м
[Sc Ac As]
+13.2 +9.7 79 +13 +14 1008.9 1004.1
12 22.06 ЮВ 2 20 км {дождь} 10/10 400 м
[Cb cap]
+14.0 +10.8 81 +13 +13 1007.8 1003.1
15 22.06 В 1 20 км 10/10 450 м
[Sc]
+13.8 +10.5 80 +14 +14 1007.3 1002.6 +14.3 0.1
18 22.06 штиль 0 20 км 10/10 700 м
[Sc]
+12.4 +11.1 92 +12 +12 1006.8 1002.0
21 22.06 штиль 0 20 км 10/10 630 м
[Sc]
+11.5 +10.7 95 +11 +11 1006.2 1001.4
00 23.06 Ю 1 20 км 10/10 660 м
[Sc]
+11.9 +10.8 93 +12 +12 1005.3 1000.5
03 23.06 Ю 1 20 км 10/8 210 м
[St As op]
+12.9 +10.8 87 +13 +13 1003.7 998.9 +11.2
06 23.06 ЮВ 2 20 км гроза без осадков 10/8 630 м
[Cb cap Ac und]
+14.1 +10.3 78 +14 +14 1002.0 997.3
09 23.06 Ю 3 20 км {гроза, ливн. осадки} 8/4 600 м
[Cb cap Ci ing]
+15.8 +14.5 92 +15 +21 1000.7 996.0
12 23.06 -10
{10}
20 км {гроза, ливн. осадки} н/о +19.3 +10.2 56 +20 +22 1001.1 996.5
15 23.06 СЗ 5
{17}
20 км {ливн. осадки} 4/4 600 м
[Cb cap]
+17.2 +7.0 51 +17 +17 1003.4 998.7 +20.1 14
18 23.06 З 3
{15}
20 км слаб. ливневой дождь 10/10 630 м
[Cb cap]
+11.3 +9.1 86 +9 +9 1004.9 1000.1
21 23.06 С 3 20 км {ливн. осадки} 10/8 930 м
[Cb cap Ac und]
+8.0 +4.9 81 +5 +5 1007.3 1002.4
00 24.06 С 2 20 км {ливн. осадки} 10/4 1000 м
[Cb cap Ac und]
+6.4 +2.5 76 +4 +4 1009.5 1004.6
03 24.06 СЗ 1 20 км 10/0
[Ac und]
+8.3 +3.7 73 +8 +9 1010.9 1006.0 +6.3 0.9
06 24.06 С 4 20 км 10/4 600 м
[Cb cap Ac trans Ci fib]
+11.9 +3.6 57 +10 +12 1011.8 1007.0
09 24.06 С 3 20 км 10/3 1000 м
[Cb cap Ac trans Ci ing]
+12.6 +4.0 56 +11 +15 1013.6 1008.8
12 24.06 С 3 20 км 10/6 600 м
[Cb cap Ac und]
+13.6 +3.9 52 +13 +13 1014.9 1010.1
15 24.06 С 3 20 км 10/5 600 м
[Cb cap Ac und]
+12.0 +5.1 63 +11 +11 1016.2 1011.3 +14.1
18 24.06 СЗ 2 20 км 8/0
[Ac trans]
+9.9 +5.2 73 +9 +9 1016.9 1012.0
21 24.06 СЗ 2 20 км 10/0
[Ac und]
+8.5 +5.0 79 +7 +7 1017.5 1012.6
00 25.06 СЗ 2 20 км 10/10 900 м
[Sc]
+7.4 +2.3 70 +6 +6 1018.7 1013.8
03 25.06 СЗ 3 20 км 10/10 800 м
[Sc]
+7.7 +1.9 67 +5 +5 1019.6 1014.7 +7.1
06 25.06 СЗ 3 20 км 10/10 750 м
[Sc]
+8.3 +1.7 63 +6 +6 1020.4 1015.5

 

Местоположение метеостанции Ижма (Коми, Россия): широта 65.00 долгота 53.92 высота над уровнем моря 40 м.

В архиве по умолчанию представлена погода в Ижме за последнюю неделю. Архивные данные за месяц целиком и за предыдущие месяцы, начиная с января 2011 года, Вы можете получить, выбрав интересующий диапазон дат из раскрывающегося списка и нажав кнопку "Ввод!".


*Определитесь, кто Вы:
робот инопланетянин человек

Внимание! Время в таблицах - всемирное. Для получения местного времени необходимо прибавить поправку, которая равна 3 ч.

Смотрите также архив погоды в соседних городах и на ближайших метеорологических станциях:

Погода в Ираеле (Коми, Россия) (88 км)
Погода в Кедва-Воме (Коми, Россия) (88 км)
Погода в Усть-Цильме (Коми, Россия) (91 км)
Погода в Мутном Материке (Коми, Россия) (120 км)
Погода в Печоре (Коми, Россия) (150 км)
Погода в Окуневом Носу (Коми, Россия) (152 км)
Погода в Ухте (Коми, Россия) (161 км)
Погода в Усть-Усе (Коми, Россия) (175 км)
Погода в Усть-Щугоре (Коми, Россия) (194 км)
Погода в Усинске (Коми, Россия) (196 км)

Пояснения к столбцам:

Ветер - указаны скорость ветра в м/с - средняя за 10 мин, порывы в срок и между сроками (в фигурных скобках) и направление, откуда дует ветер: С - северный, СВ - северо-восточный, В - восточный, ЮВ - юго-восточный, Ю - южный, ЮЗ - юго-западный, З - западный, СЗ - северо-западный.
Видимость - горизонтальная дальность видимости в метрах или километрах. При видимости от 1 до 10 км при отсутствии осадков обычно наблюдается дымка, при ухудшении видимости до 1 км и менее - туман. В сухую погоду видимость может ухудшаться дымом, пылью или мглою.
Явления - указаны атмосферные явления, наблюдавшиеся в срок или в последний час перед сроком; фигурными скобками обозначены явления, наблюдавшиеся между сроками (за 1-3 часа до срока); квадратными скобками обозначены град или гололедные отложения с указанием их диаметра в мм.
Облачность - указаны через наклонную черту общая и нижняя облачность в баллах и высота нижней границы облаков в метрах; квадратными скобками обозначены формы облаков: Ci - перистые, Cs - перисто-слоистые, Cc - перисто-кучевые, Ac - высококучевые, As - высокослоистые, Sc - слоисто-кучевые, Ns - слоисто-дождевые, Cu - кучевые, Cb - кучево-дождевые. Подробнее классификацию облаков см. в Атласе облаков (PDF).
T - Температура воздуха - температура, измеренная на высоте 2 м над землей.
Td - Температура точки росы - температура, при понижении до которой содержащийся в воздухе водяной пар достигнет насыщения.
f - Относительная влажность воздуха - влажноcть воздуха, измеренная на высоте 2 м над землей.
Te - Эффективная температура - температура, которую ощущает одетый по сезону человек в тени. Характеристика душности погоды. При расчете учитывается влияние влажности воздуха и скорости ветра на теплоощущения человека.
Tes - Эффективная температура на солнце - температура, которую ощущает человек, с поправкой на солнечный нагрев. Характеристика знойности погоды. Зависит от высоты солнца над горизонтом, облачности и скорости ветра. Ночью, в пасмурную погоду, а также при ветре 12 м/с и более поправка равна нулю.
P - Атмосферное давление - приведенное к уровню моря атмосферное давление.
Po - Атмосферное давление - измеренное на уровне метеостанции атмосферное давление.
Tmin - Минимальная температура - минимум температуры воздуха на высоте 2 м над землей.
Tmax - Максимальная температура - максимум температуры воздуха на высоте 2 м над землей.
R - Количество осадков - Количество выпавших осадков за период времени, мм. При наведении курсора мыши на число - период времени, за который выпало указанное количество осадков.
R24 - Количество осадков - Количество выпавших осадков за 24 часа, мм.
S - Снежный покров - Высота снежного покрова, см. При наведении курсора мыши на число - состояние снежного покрова и степень покрытия местности в баллах.